Wind_Speed
4 3 2 3 3 3 4 5 6 6 7 7 6 6 6 5 3 6 7 7 7 6 4 3 4 6 6 9 8 7 3 7 2 1 1 11 17 20 21 19 19 20 18 22 23
4 4 3 3 3 3 4 5 6 6 6 7 6 5 5 6 3 7 6 7 7 7 6 2 2 6 5 4 5 4 2 3 5 7 7 13 16 21 19 18 20 18 18 19 23
5 6 6 5 6 5 6 6 6 6 6 6 5 4 4 6 8 7 8 8 7 5 5 5 3 6 3 3 1 3 4 5 9 7 7 11 16 17 21 26 24 22 23 25 28
7 8 7 8 8 8 8 7 6 6 6 6 5 3 3 3 3 8 8 7 7 5 2 1 3 5 5 6 7 5 3 4 7 8 9 12 20 21 20 20 21 23 25 28 28
8 8 9 10 10 10 10 9 8 7 7 7 6 6 9 10 8 8 7 5 5 4 4 6 5 6 5 6 7 7 4 3 6 7 10 18 19 21 21 21 19 22 26 26 31
8 8 10 10 10 10 11 11 10 10 10 9 9 8 8 9 7 6 5 5 5 5 5 5 5 5 7 8 9 8 7 9 11 12 16 19 21 18 18 17 19 22 23 32 43
8 9 10 11 10 11 12 13 13 13 11 8 6 7 10 8 7 7 7 6 7 5 6 6 5 5 5 3 10 10 12 16 14 16 16 19 16 16 16 17 19 21 28 42 44
8 9 9 10 10 11 12 13 12 11 9 7 7 8 9 8 7 7 6 6 6 5 5 5 5 7 9 6 6 8 8 10 10 15 18 21 15 15 15 19 19 23 34 44 42
8 8 9 11 11 11 12 12 12 10 9 7 6 4 8 8 8 5 5 5 5 6 7 8 7 11 11 6 2 1 8 13 7 11 17 16 19 14 15 15 20 27 39 41 43
8 8 9 10 9 10 10 11 12 9 7 6 4 4 8 9 7 6 8 8 7 5 9 12 12 9 10 10 5 11 13 13 15 17 16 19 21 13 16 17 22 26 42 43 44
9 8 9 9 9 8 9 9 10 10 9 11 8 9 8 9 7 9 8 7 11 15 11 8 9 15 14 13 13 12 10 13 21 8 20 22 15 11 13 15 20 28 44 44 44
9 8 8 9 8 9 9 4 12 11 11 11 9 7 10 11 10 9 11 11 12 13 13 9 14 13 14 13 17 10 7 21 12 10 11 11 12 12 11 10 20 33 45 46 47
10 9 9 9 9 10 8 11 12 9 11 12 7 10 6 8 11 13 14 13 13 13 12 10 12 14 15 19 18 13 18 26 15 7 7 7 4 7 7 12 20 41 44 45 48
11 10 9 9 10 12 13 11 6 5 6 10 10 12 11 5 16 15 15 14 14 16 12 9 15 12 16 22 20 17 26 17 5 3 2 4 2 3 8 16 27 47 47 48 49
13 11 11 10 12 14 12 7 4 2 3 5 9 9 12 12 10 16 16 13 15 16 13 11 14 15 24 25 23 26 24 8 4 3 4 4 5 7 16 26 32 48 48 48 48
14 12 11 11 13 13 10 5 2 2 4 4 7 9 10 12 14 13 19 18 14 14 13 14 18 20 26 22 20 26 20 5 5 3 3 11 5 16 23 31 37 49 46 48 46
14 13 12 12 13 12 7 3 3 5 4 4 7 7 11 11 14 14 15 18 23 13 15 13 12 19 26 23 18 28 30 8 5 5 2 16 5 9 19 31 41 47 46 47 44
14 14 13 12 13 11 8 2 2 3 4 7 6 9 12 10 13 16 13 21 23 21 6 11 7 18 24 24 16 25 23 9 3 3 10 12 3 3 23 32 41 38 42 43 46
15 14 14 13 12 11 9 3 3 4 7 9 8 7 8 9 11 12 11 21 24 22 11 11 6 13 20 18 24 11 18 14 4 6 5 3 5 10 23 35 41 40 42 43 47
16 15 15 14 13 12 7 4 5 6 8 6 5 4 4 8 9 8 17 15 21 19 17 13 5 9 15 12 20 19 23 8 8 4 5 7 5 17 40 48 42 42 45 47 48
18 16 16 15 14 12 6 5 7 9 8 4 6 7 7 6 9 11 13 10 18 16 14 11 11 11 12 12 18 20 21 14 4 3 1 4 1 16 38 39 42 40 43 49 51
19 17 17 16 15 11 6 5 8 9 7 7 6 7 6 7 8 10 12 14 16 15 13 11 8 8 10 8 14 18 16 20 5 6 3 5 8 13 38 35 34 36 44 49 46
18 16 17 17 14 11 8 7 7 8 7 7 6 5 5 6 4 10 13 14 14 14 12 11 9 7 6 4 12 14 13 18 13 9 3 2 10 33 35 30 31 39 45 49 44
18 14 18 18 14 12 9 8 8 9 7 6 6 6 4 5 6 8 12 12 13 14 14 10 10 10 4 8 9 12 10 17 21 7 16 14 31 35 34 32 36 41 46 46 42
20 15 17 18 17 11 10 9 9 8 8 8 6 5 3 3 4 9 12 10 10 13 14 12 10 13 9 8 11 8 9 16 21 17 11 26 29 30 29 31 36 40 43 44 42
20 14 15 9 16 14 11 11 8 8 7 8 6 4 2 2 5 8 10 10 8 12 13 14 13 12 7 11 11 6 10 16 21 21 16 21 28 28 24 25 33 40 43 46 43
20 18 14 15 11 15 14 11 10 9 8 7 7 5 3 1 5 8 8 9 8 12 13 14 15 11 4 12 6 3 12 17 22 22 17 26 29 27 23 27 35 40 43 45 41
Wind_Direction
50 83 127 150 140 123 112 111 110 103 100 103 107 101 89 85 53 67 43 47 52 57 54 42 118 123 113 117 141 165 198 166 160 302 204 298 307 316 326 326 315 319 315 315 308
62 76 87 109 144 145 137 127 116 109 107 109 105 87 66 58 54 65 64 68 67 72 70 68 97 114 71 119 181 206 201 232 249 278 277 296 315 325 318 315 317 318 312 304 303
70 74 81 97 110 129 134 129 122 121 122 121 107 93 75 66 65 75 72 70 75 76 97 109 88 83 43 77 213 299 292 268 289 302 327 318 316 316 318 318 321 321 318 317 318
79 75 82 92 104 117 121 120 123 128 132 126 127 128 102 27 75 71 68 60 63 47 45 321 40 38 17 27 33 26 36 341 325 334 329 327 319 316 318 323 323 321 322 331 342
85 82 88 94 104 112 115 114 115 123 128 130 112 104 111 89 76 72 63 42 48 17 28 18 17 16 20 20 24 15 28 352 339 325 314 318 323 325 327 325 328 329 334 345 349
90 92 95 98 106 112 111 109 106 115 125 123 103 87 84 78 67 49 35 31 43 61 55 25 23 37 1 7 19 12 30 2 338 319 317 322 329 340 332 331 329 333 352 355 353
98 100 103 104 110 114 113 111 108 109 118 122 77 86 81 68 47 38 36 38 47 40 41 37 24 24 40 57 35 25 355 349 336 331 326 325 320 339 332 331 340 358 357 355 351
110 108 107 109 113 115 117 117 113 112 116 111 92 90 70 52 44 37 33 35 38 25 37 32 28 12 15 33 34 6 353 354 311 325 319 324 325 330 331 338 349 351 359 352 349
122 117 115 113 112 115 117 113 113 110 109 98 82 91 62 47 39 31 23 28 26 7 1 26 32 33 11 354 101 74 328 353 328 310 313 311 315 314 315 329 347 354 355 351 347
133 129 125 124 123 122 126 124 114 100 95 83 62 49 48 45 33 30 27 15 14 22 13 12 23 17 13 47 8 319 330 332 327 319 299 313 314 314 322 341 347 347 352 351 345
142 138 131 129 134 131 127 114 108 92 90 89 73 58 43 42 31 44 34 20 21 15 12 11 351 17 29 23 351 328 300 289 317 315 305 305 308 317 341 1 337 343 347 351 346
150 145 139 134 132 135 132 107 109 89 81 72 58 44 45 53 39 39 28 17 25 21 20 6 9 17 16 8 351 331 319 319 339 297 305 290 317 326 3 344 332 342 354 349 342
157 153 147 140 144 136 124 123 101 95 78 59 59 48 50 52 43 40 27 19 25 25 32 31 28 15 4 358 4 6 336 325 318 357 295 300 337 19 52 300 327 350 350 345 343
163 157 151 140 140 136 129 112 83 92 70 41 42 37 38 46 33 35 31 26 27 30 24 23 21 11 2 1 6 359 334 327 311 282 265 307 30 155 293 310 332 353 348 345 344
167 161 155 149 144 139 133 113 58 81 87 40 44 48 48 48 38 35 34 30 31 29 31 25 17 9 9 7 11 358 349 13 24 252 235 354 274 346 320 330 341 351 346 345 346
170 162 159 150 151 148 135 97 41 108 80 66 60 46 45 51 47 42 34 28 25 17 21 20 15 12 9 8 15 5 8 10 56 99 110 19 313 28 3 350 338 346 343 346 347
172 164 163 161 161 161 145 81 101 65 122 79 72 63 48 55 44 42 32 20 29 18 14 6 7 6 4 14 14 17 25 12 28 5 248 326 1 45 351 344 343 341 344 346 352
175 164 164 165 163 168 168 134 102 136 125 119 101 66 45 50 43 34 36 29 25 19 17 7 352 5 9 17 14 27 28 51 297 327 298 326 99 93 356 337 337 341 343 347 358
176 168 162 160 158 161 163 171 133 131 141 131 108 67 47 44 39 30 27 25 18 18 24 359 341 5 4 13 26 32 26 14 340 285 286 292 343 222 318 333 342 346 346 354 360
174 173 166 161 160 166 171 151 146 142 152 145 128 109 80 52 44 26 26 18 14 11 14 358 6 351 354 23 26 36 25 13 10 23 317 312 7 347 349 343 344 348 350 0 2
177 175 173 169 170 177 173 149 153 152 151 145 124 122 86 70 54 43 26 21 15 12 9 8 5 341 350 0 19 22 25 23 42 8 299 310 27 343 340 340 343 346 356 0 358
179 179 178 179 181 187 174 157 155 159 150 143 129 117 95 70 58 42 28 23 18 17 14 13 351 340 348 6 12 18 15 17 41 326 258 266 278 313 328 345 341 347 359 2 355
187 184 183 184 190 187 175 167 164 168 161 156 149 135 108 66 84 37 25 21 22 20 15 15 357 342 340 3 359 357 0 13 9 352 258 305 303 321 338 349 348 355 1 359 353
188 186 189 191 193 195 187 175 174 174 170 168 157 141 121 78 65 34 22 23 22 19 17 11 4 5 316 310 333 340 360 3 360 352 317 309 316 333 347 351 354 359 4 356 359
194 194 194 204 200 192 188 186 187 184 188 180 175 163 145 86 70 30 18 23 22 17 14 11 0 351 349 350 342 348 359 356 351 346 315 331 333 335 353 353 355 358 2 358 2
198 198 199 196 208 204 197 192 191 195 198 197 191 177 158 50 41 21 16 24 28 15 9 8 355 349 360 355 353 55 359 346 348 335 332 346 348 343 357 353 356 1 360 3 1
203 204 204 208 206 208 207 201 201 202 202 201 193 195 196 28 22 15 18 24 31 15 6 2 357 349 3 352 350 33 354 347 342 334 339 347 349 343 359 0 359 1 4 2 0
Height
3179 3179 3179 3180 3181 3182 3183 3184 3184 3185 3185 3186 3186 3186 3186 3187 3187 3186 3186 3185 3184 3184 3183 3183 3183 3182 3182 3182 3183 3183 3183 3183 3184 3184 3182 3180 3180 3182 3180 3179 3176 3173 3172 3168 3165
3180 3179 3179 3180 3181 3182 3183 3184 3185 3185 3186 3186 3186 3186 3187 3187 3187 3185 3186 3184 3185 3184 3184 3185 3184 3182 3182 3183 3183 3183 3183 3183 3185 3185 3183 3182 3181 3179 3177 3175 3174 3173 3170 3165 3161
3180 3180 3180 3181 3181 3182 3183 3184 3185 3186 3187 3187 3187 3187 3187 3187 3187 3186 3186 3186 3185 3185 3185 3184 3184 3183 3183 3184 3184 3185 3184 3184 3185 3186 3186 3184 3182 3179 3174 3172 3169 3166 3163 3160 3157
3181 3181 3182 3181 3182 3183 3183 3185 3186 3187 3188 3188 3188 3188 3188 3188 3190 3188 3187 3187 3187 3187 3186 3185 3184 3185 3185 3184 3184 3184 3185 3184 3182 3183 3183 3183 3179 3175 3173 3170 3165 3161 3159 3156 3152
3182 3183 3183 3183 3183 3184 3185 3185 3186 3188 3189 3189 3189 3189 3190 3190 3190 3189 3188 3189 3188 3188 3187 3186 3185 3184 3185 3184 3184 3183 3184 3183 3183 3182 3181 3178 3176 3174 3170 3165 3162 3158 3155 3153 3149
3183 3184 3184 3184 3185 3186 3186 3187 3188 3189 3190 3191 3191 3191 3192 3192 3191 3191 3190 3190 3189 3188 3188 3187 3186 3185 3184 3183 3184 3184 3183 3182 3181 3180 3177 3175 3172 3170 3166 3162 3159 3157 3154 3150 3144
3185 3185 3186 3186 3187 3187 3188 3189 3190 3191 3192 3193 3193 3193 3193 3194 3192 3192 3191 3191 3189 3189 3188 3187 3186 3186 3185 3185 3184 3182 3181 3178 3176 3175 3173 3170 3170 3167 3162 3160 3158 3155 3151 3146 3141
3186 3187 3187 3188 3188 3189 3190 3191 3192 3192 3193 3193 3194 3194 3194 3194 3193 3192 3192 3191 3190 3190 3188 3187 3187 3186 3185 3184 3183 3182 3181 3180 3175 3173 3171 3168 3165 3163 3160 3158 3156 3153 3148 3144 3138
3187 3188 3188 3190 3190 3191 3192 3193 3193 3194 3195 3195 3196 3196 3195 3195 3194 3193 3192 3191 3191 3190 3188 3188 3187 3186 3184 3183 3183 3183 3181 3180 3178 3175 3172 3170 3166 3163 3161 3159 3155 3151 3147 3140 3135
3187 3189 3190 3191 3192 3193 3193 3194 3195 3196 3197 3197 3197 3199 3197 3197 3196 3193 3193 3192 3191 3190 3189 3188 3186 3186 3186 3183 3183 3181 3179 3178 3176 3172 3168 3167 3164 3162 3158 3156 3151 3148 3144 3137 3130
3188 3189 3191 3192 3193 3194 3195 3197 3199 3199 3198 3198 3199 3198 3197 3197 3196 3194 3193 3193 3191 3189 3188 3187 3187 3184 3184 3183 3182 3179 3177 3174 3172 3169 3164 3162 3161 3160 3158 3155 3150 3147 3143 3133 3126
3188 3190 3191 3192 3193 3195 3197 3198 3198 3200 3199 3199 3199 3200 3199 3197 3197 3195 3194 3194 3191 3189 3188 3188 3185 3184 3184 3183 3180 3177 3175 3171 3168 3167 3163 3159 3159 3157 3157 3153 3150 3147 3138 3130 3122
3188 3190 3191 3192 3194 3196 3197 3199 3199 3200 3200 3201 3201 3200 3200 3200 3198 3196 3195 3193 3192 3190 3188 3187 3187 3186 3184 3181 3177 3173 3170 3166 3165 3164 3161 3160 3159 3159 3158 3153 3151 3146 3137 3129 3118
3188 3190 3191 3193 3196 3196 3198 3199 3200 3200 3202 3204 3202 3202 3201 3200 3199 3197 3196 3195 3192 3191 3189 3188 3187 3186 3183 3179 3175 3171 3167 3162 3161 3161 3162 3161 3163 3158 3155 3152 3149 3141 3134 3124 3115
3187 3189 3191 3193 3195 3197 3200 3200 3200 3201 3203 3206 3204 3204 3202 3202 3202 3199 3197 3195 3193 3192 3191 3191 3188 3184 3180 3178 3174 3171 3163 3160 3158 3158 3161 3163 3159 3158 3154 3148 3143 3139 3130 3122 3113
3187 3190 3192 3194 3196 3198 3199 3200 3201 3204 3204 3206 3205 3204 3204 3202 3201 3200 3198 3197 3194 3193 3190 3188 3185 3184 3182 3179 3175 3171 3163 3159 3159 3159 3162 3161 3159 3158 3152 3150 3144 3139 3130 3120 3110
3187 3189 3192 3194 3196 3197 3199 3200 3202 3201 3206 3207 3206 3205 3204 3203 3202 3201 3199 3196 3194 3191 3188 3187 3186 3184 3183 3179 3175 3170 3162 3160 3162 3162 3163 3158 3154 3161 3156 3152 3146 3136 3128 3119 3109
3187 3188 3191 3193 3195 3197 3199 3201 3201 3203 3204 3205 3205 3205 3204 3204 3203 3202 3200 3198 3196 3193 3189 3188 3184 3185 3183 3180 3177 3172 3171 3171 3173 3171 3163 3158 3157 3158 3155 3152 3147 3138 3127 3118 3105
3186 3188 3190 3192 3194 3197 3200 3200 3200 3201 3203 3204 3205 3205 3205 3205 3204 3202 3200 3198 3196 3193 3193 3189 3188 3187 3184 3183 3180 3177 3173 3173 3172 3169 3165 3159 3158 3156 3152 3148 3140 3132 3122 3112 3102
3184 3187 3189 3191 3193 3196 3198 3199 3199 3201 3202 3203 3204 3205 3206 3205 3205 3202 3201 3200 3197 3194 3192 3190 3188 3187 3186 3184 3182 3179 3179 3176 3175 3177 3172 3158 3158 3156 3147 3141 3135 3127 3118 3109 3099
3183 3186 3188 3190 3193 3195 3196 3197 3199 3200 3202 3203 3203 3204 3205 3205 3205 3203 3204 3202 3198 3196 3193 3190 3189 3188 3186 3184 3182 3181 3179 3179 3178 3177 3177 3171 3160 3155 3149 3143 3134 3128 3119 3109 3099
3181 3185 3187 3189 3193 3194 3195 3196 3198 3200 3201 3202 3203 3204 3204 3204 3204 3204 3203 3201 3199 3196 3194 3191 3188 3186 3186 3185 3183 3182 3180 3179 3177 3178 3175 3173 3162 3155 3151 3145 3136 3127 3118 3109 3101
3180 3183 3185 3187 3190 3192 3194 3196 3198 3199 3200 3201 3202 3203 3204 3204 3205 3204 3202 3201 3199 3196 3194 3192 3189 3187 3185 3188 3185 3183 3181 3178 3176 3173 3172 3172 3160 3156 3148 3142 3135 3126 3116 3107 3099
3179 3181 3183 3185 3188 3191 3192 3194 3196 3198 3199 3200 3202 3203 3203 3203 3203 3203 3202 3200 3198 3196 3194 3191 3189 3188 3189 3187 3186 3183 3181 3179 3176 3173 3171 3166 3156 3151 3145 3138 3132 3124 3115 3108 3098
3176 3179 3181 3182 3186 3188 3191 3193 3194 3196 3198 3199 3201 3202 3202 3202 3202 3202 3201 3200 3198 3196 3193 3191 3189 3186 3185 3185 3184 3182 3181 3179 3174 3172 3168 3164 3156 3149 3144 3137 3130 3122 3114 3106 3096
3174 3177 3179 3182 3184 3187 3189 3191 3192 3194 3196 3198 3199 3200 3201 3201 3202 3201 3200 3199 3198 3196 3193 3191 3189 3186 3184 3184 3182 3181 3180 3177 3173 3170 3167 3163 3157 3150 3145 3140 3132 3121 3113 3103 3095
3171 3175 3177 3179 3182 3185 3187 3189 3191 3193 3195 3197 3198 3199 3199 3200 3200 3199 3199 3198 3197 3195 3193 3190 3187 3184 3183 3182 3181 3182 3179 3176 3173 3168 3164 3159 3154 3147 3144 3137 3129 3122 3113 3103 3095